User: anonymous   Login
Location: Theydon Bois
(51.6750°N, 0.1050°E)
Time: 21:55:38
(UTC+01:00)
Language:

BREEZE M DEB (TANK) - Orbit

View from above orbital plane
View from above orbital plane
View from above satellite
View from above satellite

Ground track
Ground track

The orbit data is extracted from the following two-line orbital elements,

1 33454U 08063B   17295.89048545 +.00002167 +00000-0 +51853-3 0  9994
2 33454 049.3964 196.3896 5427741 124.1642 299.6186 04.90280959156524
Epoch (UTC): 22 October 2017 21:22:17
Eccentricity: 0.5427741
inclination: 49.3964°
perigee height: 314 km
apogee height: 16202 km
right ascension of ascending node: 196.3896°
argument of perigee: 124.1642°
revolutions per day: 4.90280959
mean anomaly at epoch: 299.6186°
orbit number at epoch: 15652

The dashed part of the orbit path shows where the satellite is in the earth's shadow,  

DLR